Location: College Park
(38.9810°N, 76.9370°W)
Time: 13:38:35
(UTC-05:00)

Tiangong 1 - Pass Details

Date: 14 February 2018
Orbit: 246 x 267 km, 42.8° (Epoch: 23 February)

Event Time Altitude Azimuth Distance (km) Brightness Sun altitude
Exits shadow 06:01:12 22° 320° (NW) 633 1.7 -12.1°
Maximum altitude 06:02:09 31° 6° (N) 480 1.5 -11.9°
Drops below altitude 10° 06:04:17 10° 73° (ENE) 1,042 4.4 -11.5°
Sets 06:06:17 0° 85° (E) 1,853 6.3 -11.1°
